Terminal Aerodrome Forecast
Issued by NWS

Home | Current Version | Previous Version | Text Only | Print | Product List | Glossary On
Versions: 1 2 3 4 5 6 7 8 9 10 11 12 13 14 15 16 17 18 19 20 21 22 23 24 25 26 27 28 29 30 31 32 33 34 35 36 37
000
FTUS45 KBOU 300858 AAA
TAFBJC
TAF AMD
KBJC 300858Z 3009/3106 04006KT P6SM FEW006 BKN010 OVC020
      TEMPO 3010/3014 3SM -RA BR BKN006
     FM301400 02014KT P6SM FEW005 BKN012 OVC025
      TEMPO 3014/3017 4SM SHRA BR BKN005 OVC015
     FM301900 04010KT P6SM SCT020 OVC035
      TEMPO 3020/3024 -TSRA BKN025CB
     FM310000 34010KT P6SM SCT025 BKN050 PROB30 3100/3104 -SHRA
      BKN035=

USA.gov is the U.S. government's official web portal to all federal, state and local government web resources and services.